Location: Haliburton Scout Reserve
(45.0900°N, 78.3200°W)
Time: 12:59:06
(UTC-05:00)

Tiros 1 despin weight - Visible Passes

Search period start: 07 February 2023 00:00
Search period end: 17 February 2023 00:00
Orbit: 589 x 636 km, 48.2° (Epoch: 06 February)

Date Brightness Start Highest point End Pass type
(mag) Time Alt. Az. Time Alt. Az. Time Alt. Az.
07 Feb ? 19:20:02 10° WNW 19:24:35 87° SSW 19:25:34 55° ESE visible
07 Feb ? 21:01:57 10° W 21:02:31 13° W 21:02:31 13° W visible
08 Feb ? 19:34:48 10° WNW 19:39:16 59° SSW 19:39:57 52° S visible
09 Feb ? 18:08:01 10° WNW 18:12:36 77° NNE 18:17:05 10° ESE visible
09 Feb ? 19:49:41 10° WNW 19:53:50 36° SW 19:54:26 34° SSW visible
10 Feb ? 18:22:45 10° WNW 18:27:19 78° SSW 18:31:49 10° ESE visible
10 Feb ? 20:04:50 10° W 20:08:17 22° SW 20:09:02 21° SSW visible
11 Feb ? 18:37:32 10° WNW 18:41:57 51° SSW 18:46:18 10° SE visible
11 Feb ? 20:20:56 10° WSW 20:22:36 12° SW 20:23:48 11° SSW visible
12 Feb ? 18:52:27 10° W 18:56:29 31° SW 19:00:26 10° SSE visible
13 Feb ? 19:07:45 10° W 19:10:52 18° SW 19:13:57 10° S visible
16 Feb ? 18:10:40 10° W 18:13:22 16° SW 18:16:04 10° S visible
